[[{"header":{"parameterUnit":"m.s-1","parameterCategory":1,"la1":30.2991,"la2":30.254,"lo1":-89.0895,"lo2":-89.0444,"dy":0.0017,"dx":0.0017,"nx":28,"ny":28,"refTime":"2023-08-18T21:00:00:Z","depth":0,"parameterNumber":2,"parameterNumberName":"U-component_of_WINDS"},"data":[0,0,0,0,0,0,0,0,0,0,0,0,0,0,0,0,0,0,0,0,0,0,0,0,0,0,0,0,0,0,0,0,0,0,0,0,0,0,0,0,0,0,0,0,0,0,0,0,0,0,0,0,0,0,0,0,0,0,0.7181,0.7181,0,0.7195,0.7195,0.7195,0.7164,0.7163,0.7162,0.7161,0.7177,0.7178,0.718,0,0,0,0,0,0,0,0,0,0,0,0,0,0.7126,0.7127,0.7181,0.7181,0.7181,0.7195,0.7195,0.7195,0.7165,0.7163,0.7162,0.7161,0.7177,0.7178,0.718,0,0,0,0,0,0,0,0,0,0,0,0,0,0.7146,0.7127,0.7181,0.7167,0.7166,0.7195,0.7195,0.7195,0.7165,0.7163,0.7162,0.716,0.7176,0.7178,0.718,0.7223,0,0,0.7186,0.7187,0,0,0,0,0,0,0,0,0.7145,0.7148,0.7169,0.7168,0.7167,0.7176,0.7182,0.7205,0.7165,0.7165,0.7161,0.716,0.7178,0.718,0.7186,0.7223,0.7224,0.7186,0.7188,0.7189,0.7189,0,0,0,0,0,0,0,0.7143,0.7147,0.7186,0.7169,0.7168,0.716,0.7162,0.7186,0.718,0.7165,0.7163,0.7165,0.7177,0.7184,0.7186,0.7224,0.7186,0.7188,0.7189,0.719,0.7295,0.7296,0,0,0,0,0,0,0.7144,0.7146,0.7186,0.7187,0.7152,0.7163,0.7164,0.7175,0.718,0.7179,0.7166,0.7164,0.7181,0.7184,0.7186,0.7235,0.7189,0.719,0.7192,0.7293,0.7295,0.7297,0,0,0,0,0,0,0.7143,0.7148,0.7185,0.7166,0.717,0.7165,0.7178,0.7176,0.7183,0.7181,0.7179,0.7174,0.718,0.7184,0.7213,0.7235,0.7191,0.7193,0.7292,0.7294,0.7296,0.7334,0,0,0,0,0,0,0.7141,0.7147,0.7164,0.7166,0.7171,0.7212,0.7179,0.7177,0.7186,0.7183,0.7188,0.7187,0.7179,0.721,0.7215,0.7237,0.7195,0.729,0.7293,0.7295,0.733,0.7337,0.7342,0,0,0,0,0,0.7139,0.7175,0.7165,0.717,0.7192,0.7214,0.7216,0.7206,0.7188,0.7204,0.7202,0.7187,0.7232,0.7214,0.7219,0.7242,0.7288,0.7292,0.7295,0.7328,0.7336,0.7342,0,0,0,0,0,0,0.7176,0.7175,0.7164,0.7201,0.7207,0.7208,0.7229,0.7216,0.7228,0.7224,0.7211,0.7213,0.7244,0.7246,0.7226,0.7282,0.7257,0.7262,0.728,0.7287,0.7293,0.7292,0.7196,0,0,0,0,0,0.7188,0.7206,0.7204,0.7237,0.724,0.7234,0.7243,0.7235,0.7241,0.7244,0.7244,0.7251,0.7266,0.7277,0.7291,0.733,0.733,0.7348,0.7355,0.736,0.7364,0.7383,0.739,0.7309,0.7309,0.7308,0,0,0.7213,0.7215,0.7227,0.7244,0.7248,0.7266,0.7237,0.7258,0.7271,0.7247,0.7275,0.7275,0.7282,0.7316,0.7331,0.7318,0.7386,0.7364,0.7368,0.7369,0.7387,0.7395,0.7402,0.7311,0.7311,0.731,0,0,0.7269,0.7273,0.7299,0.7303,0.7309,0.7304,0.7311,0.7313,0.7312,0.734,0.7322,0.7337,0.7365,0.7369,0.7375,0.7431,0.7416,0.7436,0.7467,0.7486,0.7492,0.7498,0.7516,0.7523,0.744,0.744,0.744,0,0.73,0.7327,0.7315,0.7336,0.7344,0.7322,0.7348,0.7353,0.7364,0.7369,0.7355,0.7387,0.739,0.7424,0.7437,0.7443,0.7449,0.7435,0.7492,0.7498,0.7503,0.752,0.7527,0.7442,0.7442,0.7442,0.7441,0,0.7364,0.7383,0.7403,0.7413,0.7422,0.7447,0.7438,0.7449,0.7439,0.7435,0.7462,0.7465,0.7479,0.7486,0.7478,0.7518,0.751,0.7494,0.7469,0.7513,0.7529,0.7536,0.7445,0.7445,0.7444,0.7443,0,0,0.7444,0.7445,0.7452,0.7456,0.746,0.7474,0.7496,0.7509,0.7518,0.7525,0.7543,0.7566,0.755,0.7557,0.7549,0.7565,0.7607,0.7547,0.7547,0.7557,0.765,0.7662,0.767,0.7597,0.7599,0.76,0.7649,0,0.7498,0.7536,0.7524,0.7562,0.7578,0.7557,0.7576,0.7581,0.7578,0.7591,0.7587,0.7603,0.7582,0.7586,0.7601,0.7599,0.7625,0.7595,0.7613,0.7614,0.7611,0.7678,0.7691,0.7738,0.7656,0.7657,0.7658,0,0.7566,0.7575,0.7614,0.7613,0.762,0.7637,0.7646,0.766,0.7663,0.766,0.7667,0.7654,0.7675,0.765,0.7678,0.7658,0.7665,0.7664,0.7666,0.7667,0.7638,0.768,0.7752,0.7759,0.7668,0.7667,0.7666,0,0.7619,0.764,0.7666,0.767,0.767,0.7682,0.7683,0.7685,0.7693,0.7701,0.7706,0.7717,0.7723,0.7731,0.7722,0.7704,0.7751,0.7725,0.7748,0.7749,0.7759,0.7758,0.7833,0.7765,0.7765,0.7765,0.7764,0,0.7679,0.7704,0.7689,0.7705,0.7731,0.7718,0.7744,0.7743,0.7745,0.7759,0.7742,0.7756,0.7743,0.7756,0.7749,0.7773,0.7776,0.7773,0.7771,0.7774,0.7774,0.7778,0.7774,0.7766,0.7766,0.7766,0.7765,0,0.7743,0.7734,0.776,0.7758,0.7757,0.7777,0.7775,0.7789,0.7784,0.7802,0.7806,0.7798,0.7812,0.7804,0.7818,0.7813,0.7844,0.7838,0.7842,0.784,0.7864,0.7861,0.7942,0.7952,0.7879,0.7879,0.788,0,0.7782,0.78,0.7799,0.7807,0.7808,0.7822,0.7829,0.7816,0.7824,0.7829,0.7842,0.7854,0.7863,0.7887,0.7882,0.7893,0.7886,0.7914,0.7888,0.789,0.7885,0.7884,0.7885,0.7919,0.792,0.7921,0.7921,0,0.7852,0.7846,0.7857,0.7865,0.7874,0.788,0.7885,0.7893,0.788,0.7889,0.7903,0.791,0.7924,0.7936,0.7944,0.7945,0.7931,0.7929,0.7935,0.7938,0.794,0.7938,0.7856,0.7928,0.7927,0.7926,0.7926,0.7926,0.7903,0.7918,0.7918,0.793,0.7932,0.7937,0.7949,0.7945,0.7956,0.7965,0.7957,0.7973,0.7975,0.7985,0.7987,0.7999,0.7988,0.7996,0.7998,0.8,0.8003,0.7938,0.8001,0.8,0.8,0.8,0.8,0,0.7971,0.797,0.7981,0.7988,0.7997,0.7981,0.7986,0.7994,0.8008,0.8011,0.8019,0.8034,0.8045,0.8041,0.8051,0.8061,0.8055,0.8064,0.8063,0.8063,0.8013,0.8007,0.8069,0.8069,0.8069,0.8069,0.8069,0.8069,0.8008,0.803,0.8024,0.8047,0.8046,0.8061,0.8064,0.8068,0.807,0.8086,0.8095,0.8092,0.8092,0.8101,0.811,0.8109,0.8113,0.8124,0.812,0.8074,0.8067,0.806,0.8054,0.8126,0.8126,0.8169,0.817,0.817]},{"header":{"parameterUnit":"m.s-1","parameterCategory":1,"la1":30.2991,"la2":30.254,"lo1":-89.0895,"lo2":-89.0444,"dy":0.0017,"dx":0.0017,"nx":28,"ny":28,"refTime":"2023-08-18T21:00:00:Z","depth":0,"parameterNumber":3,"parameterNumberName":"V-component_of_WINDS"},"data":[0,0,0,0,0,0,0,0,0,0,0,0,0,0,0,0,0,0,0,0,0,0,0,0,0,0,0,0,0,0,0,0,0,0,0,0,0,0,0,0,0,0,0,0,0,0,0,0,0,0,0,0,0,0,0,0,0,0,3.0156,3.0156,0,3.0163,3.0163,3.0163,3.011,3.0109,3.0107,3.0106,3.0112,3.0113,3.0115,0,0,0,0,0,0,0,0,0,0,0,0,0,3.0095,3.0097,3.0156,3.0156,3.0156,3.0163,3.0163,3.0163,3.011,3.0109,3.0107,3.0105,3.0111,3.0113,3.0115,0,0,0,0,0,0,0,0,0,0,0,0,0,3.0114,3.0097,3.0156,3.0131,3.0128,3.0163,3.0163,3.0163,3.0111,3.0109,3.0106,3.0104,3.0111,3.0113,3.0115,3.0173,0,0,3.0122,3.0123,0,0,0,0,0,0,0,0,3.0113,3.0116,3.0134,3.0132,3.013,3.0133,3.0144,3.0166,3.0111,3.0118,3.0106,3.0103,3.0121,3.0122,3.0128,3.0174,3.0174,3.0122,3.0124,3.0125,3.0125,0,0,0,0,0,0,0,3.0112,3.0116,3.0158,3.0135,3.0132,3.0118,3.0119,3.0148,3.0131,3.0117,3.0113,3.0115,3.0119,3.0126,3.0128,3.0174,3.0122,3.0124,3.0126,3.0126,3.0266,3.0268,0,0,0,0,0,0,3.0114,3.0115,3.0158,3.0159,3.0116,3.0121,3.0122,3.0135,3.0131,3.0128,3.0117,3.0112,3.0123,3.0125,3.0128,3.0194,3.0125,3.0127,3.0128,3.0264,3.0266,3.0269,0,0,0,0,0,0,3.0113,3.0118,3.0158,3.0136,3.014,3.0125,3.014,3.0136,3.0143,3.0131,3.0127,3.0127,3.0121,3.0125,3.0162,3.0194,3.0128,3.013,3.0261,3.0265,3.0268,3.0328,0,0,0,0,0,0,3.0111,3.0118,3.0141,3.0137,3.0141,3.0193,3.0142,3.0138,3.0147,3.0141,3.0139,3.0137,3.012,3.0159,3.0164,3.0196,3.0132,3.0258,3.0263,3.0267,3.0323,3.0334,3.0342,0,0,0,0,0,3.0109,3.0158,3.0142,3.0148,3.0169,3.0195,3.0197,3.0177,3.015,3.0171,3.0164,3.0137,3.019,3.0163,3.0169,3.0201,3.0256,3.0261,3.0266,3.0319,3.0332,3.0342,0,0,0,0,0,0,3.0165,3.0156,3.0139,3.0188,3.0192,3.0186,3.0213,3.0191,3.0203,3.0198,3.0172,3.0172,3.0213,3.0211,3.0182,3.0257,3.0218,3.0225,3.0256,3.0268,3.0277,3.0276,3.0133,0,0,0,0,0,3.0183,3.0205,3.0197,3.024,3.0243,3.0228,3.0238,3.0223,3.0226,3.0228,3.0223,3.0227,3.0244,3.0256,3.0272,3.0324,3.0322,3.0349,3.0358,3.0366,3.0371,3.0397,3.0408,3.0286,3.0286,3.0286,0,0,3.022,3.0218,3.0234,3.0251,3.0253,3.0276,3.023,3.0256,3.0272,3.0232,3.0266,3.0263,3.0266,3.0311,3.033,3.031,3.0405,3.0373,3.0379,3.038,3.0404,3.0415,3.0425,3.029,3.0289,3.0289,0,0,3.0299,3.0301,3.0336,3.0339,3.0343,3.0332,3.0341,3.0338,3.0334,3.0369,3.0338,3.0357,3.0388,3.0391,3.0397,3.0477,3.0452,3.0483,3.0531,3.0556,3.0566,3.0574,3.0601,3.0611,3.0489,3.0489,3.0489,0,3.0344,3.0378,3.0357,3.0385,3.0393,3.0358,3.0393,3.0397,3.0405,3.0411,3.0389,3.0427,3.0427,3.047,3.049,3.0497,3.0504,3.0482,3.0566,3.0574,3.0582,3.0607,3.0617,3.0492,3.0492,3.0492,3.0491,0,3.0433,3.0456,3.0485,3.0494,3.0505,3.0537,3.052,3.0534,3.0518,3.0509,3.0544,3.0543,3.0557,3.0567,3.0551,3.0608,3.0596,3.0571,3.0531,3.0597,3.062,3.063,3.0497,3.0496,3.0495,3.0494,0,0,3.0545,3.0542,3.0553,3.0556,3.0558,3.0575,3.0605,3.0619,3.0631,3.0638,3.0661,3.0689,3.0665,3.0671,3.0656,3.0679,3.074,3.065,3.065,3.0665,3.0801,3.0819,3.083,3.0725,3.0727,3.0728,3.08,0,3.062,3.0671,3.0653,3.0704,3.0725,3.0693,3.0719,3.0722,3.0715,3.0731,3.0724,3.0743,3.0711,3.0715,3.0736,3.0728,3.0767,3.0723,3.0745,3.0746,3.0743,3.0843,3.0861,3.093,3.081,3.0811,3.0812,0,3.0714,3.0725,3.0779,3.0776,3.0784,3.0807,3.0818,3.0835,3.0838,3.0831,3.0839,3.0818,3.0846,3.0809,3.0846,3.0817,3.0825,3.0823,3.0825,3.0824,3.0781,3.0843,3.0951,3.0961,3.0827,3.0826,3.0825,0,3.0788,3.0817,3.0852,3.0856,3.0854,3.0871,3.0871,3.0872,3.0881,3.0891,3.0897,3.091,3.0916,3.0927,3.091,3.0884,3.095,3.0911,3.0944,3.0944,3.0957,3.0956,3.1066,3.0966,3.0966,3.0966,3.0966,0,3.0873,3.0906,3.0885,3.0907,3.0943,3.0922,3.0959,3.0955,3.0956,3.0976,3.0949,3.0968,3.0946,3.0963,3.095,3.0982,3.0986,3.0981,3.0977,3.0982,3.0982,3.0985,3.0979,3.0969,3.0968,3.0968,3.0967,0,3.0961,3.0948,3.0984,3.098,3.0979,3.1006,3.1002,3.1021,3.1013,3.1038,3.1043,3.1029,3.1048,3.1033,3.1051,3.1042,3.1084,3.1075,3.1083,3.108,3.1113,3.1109,3.1227,3.1241,3.1134,3.1135,3.1136,0,3.1014,3.1039,3.1038,3.1049,3.1051,3.1069,3.1079,3.106,3.107,3.1076,3.1094,3.111,3.1122,3.1153,3.1144,3.1158,3.1147,3.1187,3.1148,3.1152,3.1145,3.1143,3.1144,3.1194,3.1195,3.1196,3.1197,0,3.111,3.1103,3.1117,3.113,3.1142,3.1151,3.1158,3.1169,3.1149,3.1163,3.1181,3.119,3.1208,3.1224,3.1235,3.1234,3.1212,3.121,3.1218,3.1222,3.1226,3.1222,3.1102,3.1207,3.1206,3.1205,3.1204,3.1204,3.1181,3.1201,3.1203,3.122,3.1223,3.123,3.1248,3.1242,3.1257,3.127,3.1258,3.128,3.1282,3.1294,3.1296,3.1313,3.1296,3.1308,3.1311,3.1313,3.1317,3.1225,3.1315,3.1315,3.1314,3.1314,3.1314,0,3.1274,3.1273,3.129,3.13,3.1313,3.1293,3.1299,3.1311,3.1331,3.1335,3.1347,3.1368,3.1383,3.1376,3.1389,3.1404,3.1394,3.1408,3.1405,3.1405,3.1333,3.1323,3.1415,3.1415,3.1415,3.1415,3.1415,3.1415,3.1324,3.1356,3.1349,3.1382,3.1382,3.1403,3.1408,3.1414,3.1417,3.1441,3.1454,3.145,3.1449,3.1462,3.1475,3.1473,3.1478,3.1495,3.1489,3.1421,3.141,3.1401,3.1392,3.1497,3.1497,3.156,3.156,3.1561]}]]